| time (UTC) | temp C | wind direction | speed KPH | gust KPH | rain 1hr cm | rain 24hr cm | rain mn cm | humidity % | barometer mb |
| 20260507051109 | 17 | 202 | 0.0 | 0.0 | 0.00 | 0.00 | 0.00 | 69 | 1005.7 |
| 20260507050609 | 16 | 180 | 0.0 | 0.0 | 0.00 | 0.00 | 0.00 | 70 | 1005.7 |
| 20260507050108 | 16 | 180 | 0.0 | 0.0 | 0.00 | 0.00 | 0.00 | 71 | 1005.7 |
| 20260507045607 | 15 | 180 | 0.0 | 0.0 | 0.00 | 0.00 | 0.00 | 71 | 1005.6 |
| 20260507045106 | 15 | 180 | 0.0 | 0.0 | 0.00 | 0.00 | 0.00 | 71 | 1005.7 |
| 20260507044605 | 15 | 225 | 0.0 | 0.0 | 0.00 | 0.00 | 0.00 | 72 | 1005.7 |
| 20260507044104 | 15 | 225 | 0.0 | 0.0 | 0.00 | 0.00 | 0.00 | 72 | 1005.4 |
| 20260507043604 | 15 | 180 | 0.0 | 0.0 | 0.00 | 0.00 | 0.00 | 73 | 1005.6 |
| 20260507043103 | 15 | 180 | 0.0 | 0.0 | 0.00 | 0.00 | 0.00 | 73 | 1005.6 |
| 20260507042602 | 14 | 337 | 0.0 | 0.0 | 0.00 | 0.00 | 0.00 | 73 | 1005.6 |
| 20260507042101 | 14 | 225 | 0.0 | 0.0 | 0.00 | 0.00 | 0.00 | 73 | 1005.5 |
| 20260507041600 | 14 | 0 | 0.0 | 0.0 | 0.00 | 0.00 | 0.00 | 73 | 1005.6 |
| 20260507041059 | 14 | 0 | 0.0 | 0.0 | 0.00 | 0.00 | 0.00 | 73 | 1005.5 |
| 20260507040558 | 14 | 0 | 0.0 | 0.0 | 0.00 | 0.00 | 0.00 | 74 | 1005.5 |
| 20260507040057 | 14 | 0 | 0.0 | 0.0 | 0.00 | 0.00 | 0.00 | 74 | 1005.4 |
| 20260507035038 | 14 | 0 | 0.0 | 0.0 | 0.00 | 0.00 | 0.00 | 74 | 1005.2 |
| 20260507034537 | 13 | 0 | 0.0 | 0.0 | 0.00 | 0.00 | 0.00 | 74 | 1005.2 |
| 20260507034037 | 13 | 0 | 0.0 | 0.0 | 0.00 | 0.00 | 0.00 | 74 | 1005.4 |
| 20260507033536 | 13 | 0 | 0.0 | 0.0 | 0.00 | 0.00 | 0.00 | 74 | 1005.5 |
| 20260507033035 | 13 | 0 | 0.0 | 0.0 | 0.00 | 0.00 | 0.00 | 74 | 1005.4 |
| 20260507032534 | 13 | 0 | 0.0 | 0.0 | 0.00 | 0.00 | 0.00 | 74 | 1005.6 |
| 20260507032033 | 13 | 0 | 0.0 | 0.0 | 0.00 | 0.00 | 0.00 | 74 | 1005.5 |
| 20260507031444 | 13 | 0 | 0.0 | 0.0 | 0.00 | 0.00 | 0.00 | 74 | 1005.3 |
| 20260507030943 | 13 | 0 | 0.0 | 0.0 | 0.00 | 0.00 | 0.00 | 74 | 1005.3 |
| 20260507030442 | 13 | 0 | 0.0 | 0.0 | 0.00 | 0.00 | 0.00 | 74 | 1005.3 |
| 20260507025942 | 13 | 0 | 0.0 | 0.0 | 0.00 | 0.00 | 0.00 | 74 | 1005.3 |
| 20260507024907 | 13 | 0 | 0.0 | 0.0 | 0.00 | 0.00 | 0.00 | 74 | 1005.5 |
| 20260507024406 | 13 | 0 | 0.0 | 0.0 | 0.00 | 0.00 | 0.00 | 74 | 1005.5 |
| 20260507023905 | 13 | 0 | 0.0 | 0.0 | 0.00 | 0.00 | 0.00 | 74 | 1005.5 |
| 20260507023404 | 13 | 0 | 0.0 | 0.0 | 0.00 | 0.00 | 0.00 | 74 | 1005.2 |
| 20260507022903 | 13 | 0 | 0.0 | 0.0 | 0.00 | 0.00 | 0.00 | 74 | 1005.2 |
| 20260507022402 | 13 | 0 | 0.0 | 0.0 | 0.00 | 0.00 | 0.00 | 74 | 1005.4 |
| 20260507021902 | 14 | 0 | 0.0 | 0.0 | 0.00 | 0.00 | 0.00 | 74 | 1005.2 |
| 20260507021317 | 14 | 0 | 0.0 | 0.0 | 0.00 | 0.00 | 0.00 | 74 | 1005.1 |
| 20260507020816 | 14 | 0 | 0.0 | 0.0 | 0.00 | 0.00 | 0.00 | 74 | 1005.2 |
| 20260507020314 | 14 | 0 | 0.0 | 0.0 | 0.00 | 0.00 | 0.00 | 74 | 1005.3 |
| 20260507015814 | 14 | 0 | 0.0 | 0.0 | 0.00 | 0.00 | 0.00 | 74 | 1005.2 |
| 20260507014801 | 14 | 0 | 0.0 | 0.0 | 0.00 | 0.00 | 0.00 | 74 | 1005.3 |
| 20260507014300 | 13 | 0 | 0.0 | 0.0 | 0.00 | 0.00 | 0.00 | 74 | 1005.5 |
| 20260507013759 | 13 | 0 | 0.0 | 0.0 | 0.00 | 0.00 | 0.00 | 74 | 1005.4 |
| 20260507013258 | 13 | 0 | 0.0 | 0.0 | 0.00 | 0.00 | 0.00 | 75 | 1005.4 |
| 20260507012757 | 13 | 0 | 0.0 | 0.0 | 0.00 | 0.00 | 0.00 | 75 | 1005.4 |
| 20260507012257 | 13 | 0 | 0.0 | 0.0 | 0.00 | 0.00 | 0.00 | 75 | 1005.4 |
| 20260507011756 | 13 | 0 | 0.0 | 0.0 | 0.00 | 0.00 | 0.00 | 75 | 1005.4 |
| 20260507010905 | 13 | 0 | 0.0 | 0.0 | 0.00 | 0.00 | 0.00 | 75 | 1005.5 |
| 20260507010404 | 13 | 0 | 0.0 | 0.0 | 0.00 | 0.00 | 0.00 | 75 | 1005.6 |
| 20260507005903 | 13 | 0 | 0.0 | 0.0 | 0.00 | 0.00 | 0.00 | 74 | 1005.6 |
| 20260507005402 | 13 | 0 | 0.0 | 0.0 | 0.00 | 0.00 | 0.00 | 74 | 1005.6 |
| 20260507004901 | 13 | 0 | 0.0 | 0.0 | 0.00 | 0.00 | 0.00 | 74 | 1005.6 |
| 20260507004400 | 13 | 0 | 0.0 | 0.0 | 0.00 | 0.00 | 0.00 | 74 | 1005.7 |
| 20260507003359 | 13 | 0 | 0.0 | 0.0 | 0.00 | 0.00 | 0.00 | 74 | 1005.8 |
| 20260507002859 | 13 | 0 | 0.0 | 0.0 | 0.00 | 0.00 | 0.00 | 74 | 1005.7 |
| 20260507002358 | 13 | 0 | 0.0 | 0.0 | 0.00 | 0.00 | 0.00 | 74 | 1005.7 |
| 20260507001857 | 13 | 0 | 0.0 | 0.0 | 0.00 | 0.00 | 0.00 | 74 | 1005.8 |
| 20260507001356 | 13 | 0 | 0.0 | 0.0 | 0.00 | 0.00 | 0.00 | 74 | 1005.8 |
| 20260507000855 | 13 | 0 | 0.0 | 0.0 | 0.00 | 0.00 | 0.00 | 74 | 1005.8 |
| 20260507000355 | 13 | 0 | 0.0 | 0.0 | 0.00 | 0.00 | 0.00 | 74 | 1005.8 |
| 20260506235816 | 13 | 0 | 0.0 | 0.0 | 0.00 | 0.00 | 0.00 | 74 | 1005.9 |
| 20260506235315 | 13 | 0 | 0.0 | 0.0 | 0.00 | 0.00 | 0.00 | 74 | 1005.9 |
| 20260506234813 | 13 | 0 | 0.0 | 0.0 | 0.00 | 0.00 | 0.00 | 74 | 1005.9 |
| 20260506234313 | 14 | 0 | 0.0 | 0.0 | 0.00 | 0.00 | 0.00 | 73 | 1005.9 |
| 20260506233316 | 14 | 0 | 0.0 | 0.0 | 0.00 | 0.00 | 0.00 | 73 | 1006.0 |
| 20260506232815 | 14 | 0 | 0.0 | 0.0 | 0.00 | 0.00 | 0.00 | 72 | 1006.0 |
| 20260506232314 | 14 | 0 | 0.0 | 0.0 | 0.00 | 0.00 | 0.00 | 72 | 1005.8 |
| 20260506231813 | 14 | 0 | 0.0 | 0.0 | 0.00 | 0.00 | 0.00 | 72 | 1005.9 |
| 20260506231312 | 14 | 0 | 0.0 | 0.0 | 0.00 | 0.00 | 0.00 | 72 | 1005.9 |
| 20260506230811 | 14 | 0 | 0.0 | 0.0 | 0.00 | 0.00 | 0.00 | 72 | 1006.0 |
| 20260506230311 | 14 | 0 | 0.0 | 0.0 | 0.00 | 0.00 | 0.00 | 72 | 1006.0 |
| 20260506225708 | 14 | 0 | 0.0 | 0.0 | 0.00 | 0.00 | 0.00 | 72 | 1006.0 |
| 20260506225207 | 14 | 0 | 0.0 | 0.0 | 0.00 | 0.00 | 0.00 | 71 | 1006.0 |
| 20260506224706 | 15 | 0 | 0.0 | 0.0 | 0.00 | 0.00 | 0.00 | 71 | 1006.0 |
| 20260506224205 | 15 | 0 | 0.0 | 0.0 | 0.00 | 0.00 | 0.00 | 71 | 1006.1 |
| 20260506223704 | 15 | 0 | 0.0 | 0.0 | 0.00 | 0.00 | 0.00 | 70 | 1005.9 |
| 20260506223203 | 15 | 0 | 0.0 | 0.0 | 0.00 | 0.00 | 0.00 | 70 | 1005.9 |
| 20260506222702 | 15 | 0 | 0.0 | 0.0 | 0.00 | 0.00 | 0.00 | 70 | 1005.9 |
| 20260506222202 | 15 | 0 | 0.0 | 0.0 | 0.00 | 0.00 | 0.00 | 69 | 1005.9 |
| 20260506221211 | 15 | 0 | 0.0 | 0.0 | 0.00 | 0.00 | 0.00 | 69 | 1006.0 |
| 20260506220710 | 15 | 0 | 0.0 | 0.0 | 0.00 | 0.00 | 0.00 | 68 | 1006.1 |
| 20260506220209 | 15 | 0 | 0.0 | 0.0 | 0.00 | 0.00 | 0.00 | 67 | 1006.0 |
| 20260506215708 | 16 | 0 | 0.0 | 0.0 | 0.00 | 0.00 | 0.00 | 67 | 1006.1 |
| 20260506215207 | 16 | 0 | 0.0 | 0.0 | 0.00 | 0.00 | 0.00 | 67 | 1006.1 |
| 20260506214706 | 16 | 0 | 0.0 | 0.0 | 0.00 | 0.00 | 0.00 | 67 | 1006.0 |
| 20260506214205 | 16 | 0 | 0.0 | 0.0 | 0.00 | 0.00 | 0.00 | 66 | 1006.0 |
| 20260506213704 | 16 | 0 | 0.0 | 0.0 | 0.00 | 0.00 | 0.00 | 66 | 1006.0 |
| 20260506213203 | 16 | 0 | 0.0 | 0.0 | 0.00 | 0.00 | 0.00 | 66 | 1006.0 |
| 20260506212702 | 16 | 0 | 0.0 | 0.0 | 0.00 | 0.00 | 0.00 | 65 | 1006.1 |
| 20260506212202 | 16 | 0 | 0.0 | 0.0 | 0.00 | 0.00 | 0.00 | 64 | 1005.9 |
| 20260506211155 | 16 | 0 | 0.0 | 0.0 | 0.00 | 0.00 | 0.00 | 64 | 1005.9 |
| 20260506210654 | 17 | 0 | 0.0 | 0.0 | 0.00 | 0.00 | 0.00 | 64 | 1006.0 |
| 20260506210153 | 17 | 0 | 0.0 | 0.0 | 0.00 | 0.00 | 0.00 | 63 | 1006.0 |
| 20260506205652 | 17 | 0 | 0.0 | 0.0 | 0.00 | 0.00 | 0.00 | 62 | 1005.9 |
| 20260506205151 | 17 | 0 | 0.0 | 0.0 | 0.00 | 0.00 | 0.00 | 62 | 1005.9 |
| 20260506204651 | 17 | 0 | 0.0 | 0.0 | 0.00 | 0.00 | 0.00 | 62 | 1005.9 |
| 20260506204150 | 17 | 0 | 0.0 | 0.0 | 0.00 | 0.00 | 0.00 | 61 | 1005.9 |
| 20260506203555 | 17 | 0 | 0.0 | 0.0 | 0.00 | 0.00 | 0.00 | 60 | 1005.8 |
| 20260506203054 | 17 | 0 | 0.0 | 0.0 | 0.00 | 0.00 | 0.00 | 60 | 1005.8 |
| 20260506202553 | 17 | 0 | 0.0 | 0.0 | 0.00 | 0.00 | 0.00 | 59 | 1005.8 |
| 20260506202052 | 17 | 0 | 0.0 | 0.0 | 0.00 | 0.00 | 0.00 | 59 | 1005.8 |
| 20260506201023 | 17 | 0 | 0.0 | 0.0 | 0.00 | 0.00 | 0.00 | 58 | 1005.8 |
| 20260506200522 | 18 | 0 | 0.0 | 0.0 | 0.00 | 0.00 | 0.00 | 58 | 1005.7 |
| 20260506200021 | 18 | 0 | 0.0 | 0.0 | 0.00 | 0.00 | 0.00 | 58 | 1005.7 |
| 20260506195521 | 18 | 0 | 0.0 | 0.0 | 0.00 | 0.00 | 0.00 | 58 | 1005.8 |
| 20260506195020 | 18 | 0 | 0.0 | 0.0 | 0.00 | 0.00 | 0.00 | 58 | 1005.8 |
| 20260506194519 | 18 | 0 | 0.0 | 0.0 | 0.00 | 0.00 | 0.00 | 58 | 1005.9 |
| 20260506194018 | 18 | 0 | 0.0 | 0.0 | 0.00 | 0.00 | 0.00 | 57 | 1005.9 |
| 20260506193445 | 18 | 0 | 0.0 | 0.0 | 0.00 | 0.00 | 0.00 | 57 | 1005.8 |
| 20260506192944 | 18 | 0 | 0.0 | 0.0 | 0.00 | 0.00 | 0.00 | 57 | 1005.8 |
| 20260506192443 | 18 | 0 | 0.0 | 0.0 | 0.00 | 0.00 | 0.00 | 56 | 1005.7 |
| 20260506191942 | 19 | 0 | 0.0 | 0.0 | 0.00 | 0.00 | 0.00 | 56 | 1005.9 |
| 20260506190937 | 19 | 0 | 0.0 | 0.0 | 0.00 | 0.00 | 0.00 | 55 | 1006.0 |
| 20260506190437 | 19 | 0 | 0.0 | 0.0 | 0.00 | 0.00 | 0.00 | 55 | 1006.0 |
| 20260506185936 | 19 | 0 | 0.0 | 0.0 | 0.00 | 0.00 | 0.00 | 55 | 1005.8 |
| 20260506185435 | 19 | 0 | 0.0 | 0.0 | 0.00 | 0.00 | 0.00 | 54 | 1005.8 |
| 20260506184914 | 20 | 0 | 0.0 | 0.0 | 0.00 | 0.00 | 0.00 | 54 | 1005.7 |
| 20260506184413 | 20 | 0 | 0.0 | 0.0 | 0.00 | 0.00 | 0.00 | 53 | 1005.6 |
| 20260506183912 | 20 | 0 | 0.0 | 0.0 | 0.00 | 0.00 | 0.00 | 53 | 1005.5 |
| 20260506183411 | 20 | 0 | 0.0 | 0.0 | 0.00 | 0.00 | 0.00 | 52 | 1005.4 |
| 20260506182911 | 20 | 0 | 0.0 | 0.0 | 0.00 | 0.00 | 0.00 | 52 | 1005.4 |
| 20260506182410 | 20 | 0 | 0.0 | 0.0 | 0.00 | 0.00 | 0.00 | 52 | 1005.2 |
| 20260506181908 | 20 | 0 | 0.0 | 0.0 | 0.00 | 0.00 | 0.00 | 51 | 1005.2 |
| 20260506181408 | 21 | 0 | 0.0 | 0.0 | 0.00 | 0.00 | 0.00 | 50 | 1005.0 |
| 20260506180907 | 21 | 0 | 0.0 | 0.0 | 0.00 | 0.00 | 0.00 | 50 | 1005.0 |
| 20260506180406 | 21 | 0 | 0.0 | 0.0 | 0.00 | 0.00 | 0.00 | 50 | 1004.9 |
| 20260506175905 | 21 | 0 | 0.0 | 0.0 | 0.00 | 0.00 | 0.00 | 48 | 1004.9 |
| 20260506174814 | 21 | 0 | 0.0 | 0.0 | 0.00 | 0.00 | 0.00 | 48 | 1004.7 |
| 20260506174313 | 21 | 0 | 0.0 | 0.0 | 0.00 | 0.00 | 0.00 | 48 | 1004.7 |
| 20260506173812 | 21 | 0 | 0.0 | 0.0 | 0.00 | 0.00 | 0.00 | 47 | 1004.6 |
| 20260506173312 | 22 | 0 | 0.0 | 0.0 | 0.00 | 0.00 | 0.00 | 47 | 1004.6 |
| 20260506172811 | 22 | 0 | 0.0 | 0.0 | 0.00 | 0.00 | 0.00 | 46 | 1004.5 |
| 20260506172310 | 22 | 0 | 0.0 | 0.0 | 0.00 | 0.00 | 0.00 | 46 | 1004.6 |
| 20260506171809 | 22 | 0 | 0.0 | 0.0 | 0.00 | 0.00 | 0.00 | 46 | 1004.5 |
| 20260506171308 | 22 | 0 | 0.0 | 0.0 | 0.00 | 0.00 | 0.00 | 45 | 1004.5 |
| 20260506170807 | 22 | 0 | 0.0 | 0.0 | 0.00 | 0.00 | 0.00 | 45 | 1004.5 |
| 20260506170306 | 22 | 0 | 0.0 | 0.0 | 0.00 | 0.00 | 0.00 | 44 | 1004.4 |
| 20260506165805 | 23 | 0 | 0.0 | 0.0 | 0.00 | 0.00 | 0.00 | 43 | 1004.5 |
| 20260506164706 | 23 | 157 | 0.0 | 0.0 | 0.00 | 0.00 | 0.00 | 43 | 1004.3 |
| 20260506164206 | 23 | 135 | 0.0 | 0.0 | 0.00 | 0.00 | 0.00 | 42 | 1004.3 |
| 20260506163705 | 23 | 135 | 0.0 | 0.0 | 0.00 | 0.00 | 0.00 | 42 | 1004.2 |
| 20260506163204 | 23 | 135 | 0.0 | 0.0 | 0.00 | 0.00 | 0.00 | 41 | 1004.3 |
| 20260506162703 | 23 | 135 | 0.0 | 0.0 | 0.00 | 0.00 | 0.00 | 41 | 1004.2 |
| 20260506162202 | 23 | 112 | 0.0 | 0.0 | 0.00 | 0.00 | 0.00 | 40 | 1004.2 |
| 20260506161702 | 23 | 112 | 0.0 | 0.0 | 0.00 | 0.00 | 0.00 | 40 | 1004.0 |
| 20260506161141 | 24 | 337 | 0.0 | 0.0 | 0.00 | 0.00 | 0.00 | 39 | 1004.0 |
| 20260506160639 | 24 | 337 | 0.0 | 0.0 | 0.00 | 0.00 | 0.00 | 39 | 1004.0 |
| 20260506160138 | 24 | 135 | 0.0 | 0.0 | 0.00 | 0.00 | 0.00 | 39 | 1004.0 |
| 20260506155638 | 25 | 0 | 0.0 | 0.0 | 0.00 | 0.00 | 0.00 | 38 | 1004.0 |
| 20260506154637 | 25 | 135 | 0.0 | 0.0 | 0.00 | 0.00 | 0.00 | 38 | 1003.9 |
| 20260506154136 | 25 | 247 | 0.0 | 0.0 | 0.00 | 0.00 | 0.00 | 38 | 1003.9 |
| 20260506153635 | 25 | 180 | 0.0 | 0.0 | 0.00 | 0.00 | 0.00 | 38 | 1003.9 |
| 20260506153134 | 24 | 22 | 0.0 | 0.0 | 0.00 | 0.00 | 0.00 | 38 | 1003.9 |
| 20260506152633 | 24 | 22 | 0.0 | 0.0 | 0.00 | 0.00 | 0.00 | 38 | 1003.9 |
| 20260506152132 | 25 | 247 | 0.0 | 0.0 | 0.00 | 0.00 | 0.00 | 38 | 1003.8 |
| 20260506151632 | 25 | 135 | 0.0 | 0.0 | 0.00 | 0.00 | 0.00 | 37 | 1003.9 |
| 20260506151033 | 25 | 135 | 0.0 | 0.0 | 0.00 | 0.00 | 0.00 | 37 | 1003.8 |
| 20260506150532 | 25 | 247 | 0.0 | 0.0 | 0.00 | 0.00 | 0.00 | 37 | 1003.8 |
| 20260506150031 | 25 | 247 | 0.0 | 0.0 | 0.00 | 0.00 | 0.00 | 36 | 1003.8 |
| 20260506145530 | 25 | 22 | 0.0 | 0.0 | 0.00 | 0.00 | 0.18 | 35 | 1003.8 |
| 20260506144457 | 25 | 247 | 0.0 | 0.0 | 0.00 | 0.00 | 0.18 | 34 | 1003.7 |
| 20260506143956 | 25 | 0 | 0.0 | 0.0 | 0.00 | 0.00 | 0.18 | 34 | 1003.7 |
| 20260506143455 | 26 | 0 | 0.0 | 0.0 | 0.00 | 0.00 | 0.18 | 33 | 1003.6 |
| 20260506142954 | 26 | 225 | 0.0 | 0.0 | 0.00 | 0.00 | 0.18 | 32 | 1003.4 |
| 20260506142454 | 26 | 112 | 0.0 | 0.0 | 0.00 | 0.00 | 0.18 | 32 | 1003.4 |
| 20260506141953 | 26 | 0 | 0.0 | 0.0 | 0.00 | 0.00 | 0.18 | 31 | 1003.5 |
| 20260506141452 | 26 | 0 | 0.0 | 0.0 | 0.00 | 0.00 | 0.18 | 31 | 1003.4 |
| 20260506140901 | 26 | 225 | 19.3 | 0.0 | 0.00 | 0.00 | 0.18 | 31 | 1003.3 |
| 20260506140400 | 26 | 247 | 0.0 | 0.0 | 0.00 | 0.00 | 0.18 | 32 | 1003.3 |
| 20260506135859 | 26 | 225 | 0.0 | 0.0 | 0.00 | 0.00 | 0.23 | 31 | 1003.3 |
| 20260506135358 | 26 | 135 | 0.0 | 0.0 | 0.00 | 0.00 | 0.23 | 31 | 1003.3 |
| 20260506134843 | 26 | 247 | 6.4 | 0.0 | 0.00 | 0.00 | 0.23 | 30 | 1003.2 |
| 20260506134342 | 26 | 270 | 0.0 | 0.0 | 0.00 | 0.00 | 0.23 | 30 | 1003.2 |
| 20260506133841 | 26 | 202 | 8.0 | 0.0 | 0.00 | 0.00 | 0.23 | 30 | 1003.2 |
| 20260506133341 | 27 | 180 | 9.7 | 0.0 | 0.00 | 0.00 | 0.23 | 29 | 1003.3 |
| 20260506132412 | 27 | 135 | 0.0 | 0.0 | 0.00 | 0.00 | 0.23 | 30 | 1003.4 |
| 20260506131911 | 27 | 202 | 3.2 | 0.0 | 0.00 | 0.00 | 0.23 | 30 | 1003.3 |
| 20260506131410 | 26 | 180 | 9.7 | 0.0 | 0.00 | 0.00 | 0.23 | 30 | 1003.3 |
| 20260506130909 | 26 | 202 | 6.4 | 0.0 | 0.00 | 0.00 | 0.23 | 30 | 1003.4 |
| 20260506130408 | 26 | 202 | 6.4 | 0.0 | 0.00 | 0.00 | 0.23 | 30 | 1003.5 |
| 20260506125908 | 26 | 225 | 1.6 | 0.0 | 0.00 | 0.00 | 0.23 | 31 | 1003.5 |
| 20260506125407 | 26 | 225 | 9.7 | 0.0 | 0.00 | 0.00 | 0.23 | 31 | 1003.5 |
| 20260506124905 | 25 | 202 | 9.7 | 0.0 | 0.00 | 0.00 | 0.23 | 30 | 1003.7 |
| 20260506124405 | 25 | 225 | 6.4 | 0.0 | 0.00 | 0.00 | 0.23 | 30 | 1003.6 |
| 20260506123904 | 25 | 202 | 4.8 | 0.0 | 0.00 | 0.00 | 0.23 | 30 | 1003.4 |
| 20260506123403 | 26 | 225 | 14.5 | 0.0 | 0.00 | 0.00 | 0.23 | 31 | 1003.3 |
| 20260506122352 | 26 | 202 | 11.3 | 0.0 | 0.00 | 0.00 | 0.23 | 31 | 1003.5 |
| 20260506121851 | 26 | 67 | 0.0 | 0.0 | 0.00 | 0.00 | 0.23 | 34 | 1003.6 |
| 20260506120850 | 27 | 67 | 0.0 | 0.0 | 0.00 | 0.00 | 0.23 | 35 | 1003.8 |
| 20260506120349 | 27 | 67 | 0.0 | 0.0 | 0.00 | 0.00 | 0.23 | 35 | 1003.9 |
| 20260506115848 | 27 | 67 | 0.0 | 0.0 | 0.00 | 0.00 | 0.23 | 35 | 1003.9 |
| 20260506115347 | 26 | 67 | 0.0 | 0.0 | 0.00 | 0.00 | 0.23 | 37 | 1003.9 |
| 20260506114438 | 26 | 67 | 0.0 | 0.0 | 0.00 | 0.00 | 0.23 | 37 | 1004.0 |
| 20260506113937 | 25 | 67 | 0.0 | 0.0 | 0.00 | 0.00 | 0.23 | 40 | 1004.1 |
| 20260506113436 | 25 | 67 | 0.0 | 0.0 | 0.00 | 0.00 | 0.23 | 39 | 1004.1 |
| 20260506112935 | 24 | 67 | 0.0 | 0.0 | 0.00 | 0.00 | 0.23 | 40 | 1004.3 |
| 20260506112238 | 24 | 67 | 0.0 | 0.0 | 0.00 | 0.00 | 0.23 | 40 | 1004.5 |
| 20260506111737 | 24 | 67 | 4.8 | 0.0 | 0.00 | 0.00 | 0.23 | 40 | 1004.5 |
| 20260506111237 | 24 | 67 | 3.2 | 0.0 | 0.00 | 0.00 | 0.23 | 42 | 1004.6 |
| 20260506110736 | 23 | 67 | 0.0 | 0.0 | 0.00 | 0.00 | 0.23 | 44 | 1004.7 |
| 20260506110235 | 23 | 67 | 0.0 | 0.0 | 0.00 | 0.00 | 0.23 | 44 | 1004.7 |
| 20260506105734 | 23 | 67 | 0.0 | 0.0 | 0.00 | 0.00 | 0.23 | 44 | 1004.8 |
| 20260506105234 | 24 | 67 | 0.0 | 0.0 | 0.00 | 0.00 | 0.23 | 45 | 1004.8 |
| 20260506104404 | 24 | 67 | 0.0 | 0.0 | 0.00 | 0.00 | 0.23 | 45 | 1004.8 |
| 20260506103904 | 23 | 67 | 0.0 | 0.0 | 0.00 | 0.00 | 0.23 | 46 | 1005.0 |
| 20260506103402 | 23 | 67 | 0.0 | 0.0 | 0.00 | 0.00 | 0.23 | 46 | 1005.0 |
| 20260506102902 | 23 | 67 | 8.0 | 0.0 | 0.00 | 0.00 | 0.23 | 48 | 1005.1 |
| 20260506102117 | 23 | 45 | 0.0 | 0.0 | 0.00 | 0.00 | 0.23 | 48 | 1005.2 |
| 20260506101616 | 23 | 45 | 0.0 | 0.0 | 0.00 | 0.00 | 0.23 | 50 | 1005.3 |
| 20260506101115 | 22 | 45 | 0.0 | 0.0 | 0.00 | 0.00 | 0.23 | 51 | 1005.3 |
| 20260506100614 | 21 | 45 | 0.0 | 0.0 | 0.00 | 0.00 | 0.23 | 52 | 1005.4 |
| 20260506100113 | 21 | 45 | 0.0 | 0.0 | 0.00 | 0.00 | 0.23 | 52 | 1005.5 |
| 20260506095612 | 21 | 45 | 0.0 | 0.0 | 0.00 | 0.00 | 0.23 | 52 | 1005.5 |
| 20260506095112 | 22 | 45 | 0.0 | 0.0 | 0.00 | 0.00 | 0.23 | 54 | 1005.5 |
| 20260506094521 | 22 | 45 | 0.0 | 0.0 | 0.00 | 0.00 | 0.23 | 53 | 1005.5 |
| 20260506094020 | 22 | 45 | 0.0 | 0.0 | 0.00 | 0.00 | 0.23 | 53 | 1005.6 |
| 20260506093519 | 22 | 45 | 0.0 | 0.0 | 0.00 | 0.00 | 0.23 | 54 | 1005.6 |
| 20260506093018 | 21 | 45 | 0.0 | 0.0 | 0.00 | 0.00 | 0.23 | 57 | 1005.5 |
| 20260506091951 | 21 | 45 | 0.0 | 0.0 | 0.00 | 0.00 | 0.23 | 58 | 1005.7 |
| 20260506091450 | 21 | 45 | 0.0 | 0.0 | 0.00 | 0.00 | 0.23 | 57 | 1005.7 |
| 20260506090949 | 21 | 45 | 0.0 | 0.0 | 0.00 | 0.00 | 0.23 | 58 | 1005.8 |
| 20260506090448 | 20 | 45 | 0.0 | 0.0 | 0.00 | 0.00 | 0.23 | 60 | 1005.8 |
| 20260506085947 | 20 | 45 | 0.0 | 0.0 | 0.00 | 0.00 | 0.23 | 60 | 1005.8 |
| 20260506085447 | 20 | 45 | 0.0 | 0.0 | 0.00 | 0.00 | 0.23 | 61 | 1005.7 |
| 20260506084946 | 20 | 45 | 0.0 | 0.0 | 0.00 | 0.00 | 0.23 | 60 | 1005.8 |
| 20260506084445 | 19 | 45 | 0.0 | 0.0 | 0.00 | 0.00 | 0.23 | 64 | 1005.9 |
| 20260506083944 | 18 | 45 | 0.0 | 0.0 | 0.00 | 0.00 | 0.23 | 64 | 1005.9 |
| 20260506083443 | 18 | 45 | 0.0 | 0.0 | 0.00 | 0.00 | 0.23 | 64 | 1005.9 |
| 20260506082942 | 18 | 45 | 0.0 | 0.0 | 0.00 | 0.00 | 0.23 | 64 | 1006.0 |
| 20260506082441 | 18 | 45 | 0.0 | 0.0 | 0.00 | 0.00 | 0.23 | 66 | 1005.9 |
| 20260506081940 | 18 | 45 | 0.0 | 0.0 | 0.00 | 0.00 | 0.23 | 66 | 1005.9 |
| 20260506081439 | 17 | 45 | 0.0 | 0.0 | 0.00 | 0.00 | 0.23 | 66 | 1005.9 |
| 20260506080939 | 16 | 45 | 0.0 | 0.0 | 0.00 | 0.00 | 0.23 | 69 | 1005.9 |
| 20260506073355 | 15 | 45 | 0.0 | 0.0 | 0.00 | 0.00 | 0.23 | 73 | 1006.0 |
| 20260506072855 | 15 | 45 | 0.0 | 0.0 | 0.00 | 0.00 | 0.23 | 74 | 1006.1 |
| 20260506071824 | 15 | 45 | 4.8 | 0.0 | 0.00 | 0.00 | 0.23 | 75 | 1006.2 |
| 20260506071322 | 15 | 45 | 0.0 | 0.0 | 0.00 | 0.00 | 0.23 | 75 | 1006.3 |
| 20260506070822 | 15 | 45 | 3.2 | 0.0 | 0.00 | 0.00 | 0.23 | 75 | 1006.3 |
| 20260506070321 | 15 | 45 | 0.0 | 0.0 | 0.00 | 0.00 | 0.23 | 76 | 1006.4 |
| 20260506062210 | 12 | 45 | 0.0 | 0.0 | 0.00 | 0.00 | 0.23 | 81 | 1006.6 |
| 20260506061709 | 12 | 45 | 0.0 | 0.0 | 0.00 | 0.00 | 0.23 | 81 | 1006.6 |
| 20260506061208 | 12 | 45 | 0.0 | 0.0 | 0.00 | 0.00 | 0.23 | 81 | 1006.5 |
| 20260506060707 | 12 | 45 | 0.0 | 0.0 | 0.00 | 0.00 | 0.23 | 81 | 1006.6 |